Back to catalog

STARLINK-37494

AliveCommunicationsSSO
NORAD 68905·PAYLOAD·🇺🇸 United States

Launched Apr 30, 2026 from Vandenberg Space Force Base

Loading…

Next Passes (next 24 hours)

TLE

FreshSource: CelesTrak SupGP

Epoch: Sep 14, 2026, 23:18 UTC

1 68905C 26097L   26257.97131944  .00070720  00000+0  21950-2 0  2573
2 68905  97.2853  92.1826 0001611  93.2430 280.4555 15.33407110    17

Track STARLINK-37494 in real time with AllMySat

Download on the App Store